User: anonymous   Login
Location: Unspecified
(0.0000°N, 0.0000°E)
Time: 08:19:43
(UTC+00:00)
Language:

Nova 3 - Orbit

View from above orbital plane
View from above orbital plane
View from above satellite
View from above satellite

Ground track
Ground track

The orbit data is extracted from the following two-line orbital elements,

1 15362U 84110A   18267.94961508 +.00000027 +00000-0 +42968-4 0  9999
2 15362 090.0556 057.0833 0032886 036.3539 078.6833 13.22758843638517
Epoch (UTC): 24 September 2018 22:47:26
Eccentricity: 0.0032886
inclination: 90.0556°
perigee height: 1149 km
apogee height: 1199 km
right ascension of ascending node: 57.0833°
argument of perigee: 36.3539°
revolutions per day: 13.22758843
mean anomaly at epoch: 78.6833°
orbit number at epoch: 63851

The dashed part of the orbit path shows where the satellite is in the earth's shadow,  

DLR